STARLINK-31905, 59896

Orbit data source: Space-Track

STARLINK-31905, 59896 is a payload satellite owned by SpaceX/Seattle (US) in LEO that was launched on Tue, 28 May 2024 UTC via an FALCON 9 launch vehicle from the Air Force Eastern Test Range (AFETR). Payload-class satellites include a variety of spacecraft equipped with specific instruments for various scientific and technological missions. These include communications satellites like Starlink; space stations such as the ISS; scientific satellites like the Hubble; Earth observation satellites from companies like Planet Labs, Umbra, and HawkEye 360; GPS; miniature CubeSats for education and research; and military/defense satellites.

Loading next visibility...
Identifier
59896, 2024-100M
Orbit
LEO
Country
Flag of USUS
Related business
Manufacturer
SpaceX/Seattle
Mission
Operational Commercial Communications
Bus & Motor
STARLINK V2M, Unknown motor
Mass
730 kg wet, ~700 kg dry
Launch date (UTC)
2024-05-28 (1 year ago)
Launch vehicle
FALCON 9
Launch site
Air Force Eastern Test Range (AFETR)
Object type
Payload
Rocket body
Debris
Shape & HBR
Box + 2 Pan, 17.7 m
Radar Cross Section
33.884 m², Large (>1 m²)

Expand to show TLE details & history
Last TLE update: 1 day ago

TLE from 1 day ago
0 STARLINK-31905
1 59896U 24100M   25310.68466288  .00001384  00000-0  59785-4 0  9997
2 59896  43.0030  96.7082 0001548 268.3097  91.7578 15.27584997 82389
Epoch: 2025-11-06T16:25Z
TLE epoch observation values (Epoch: 2025-11-06T16:25:54.872Z)
Latitude
0.00001°
Longitude
164.09014°
Altitude
482.843 km
Speed
7.626 km/s
True Right ascension
06h 26m 49s
True Declination
0° 00' 00"
Sunlit
Object was in full shadow at epoch
Visualization orbit readout
Latitude
Unknown
Longitude
Unknown
Altitude
Unknown
Speed
Unknown
Apparent Right ascension
Unknown
Apparent Declination
Unknown
Sunlit
N/A
Visualization observer readout
Local Sidereal Time
12:27:58
Azimuth
Unknown
Elevation
Unknown
Doppler factor
Unknown
Orbital elements
Apogee altitude
486.041 km
Perigee altitude
483.916 km
Semi-major axis
6,863.116 km
Eccentricity
0.00015
Inclination
43.003°
RAAN
96.7082°
Arg. of periapsis
268.3097°
True anomaly
91.77553°
Mean anomaly
91.7578°
Eccentric anomaly
91.76667°
Mean motion
3.81734 °/min
Orbital period
94.31 mins
BSTAR
0.000059785
Loading maneuver chart data...
Computing Atmospheric mass density...
Loading historical data...
Loading historical data...
Loading historical data...
Loading historical data...
Loading historical data...
Loading historical data...
Loading historical data...

Documentation

Showing up to 5 results
|